Regional Weather Roundup
Issued by NWS

Home | Current Version | Previous Version | Graphics & Text | Print | Product List | Glossary Off
Versions: 1 2 3 4 5 6 7 8 9 10 11 12 13 14 15 16 17 18 19 20 21 22 23 24 25 26 27 28 29 30 31 32 33 34 35 36 37 38 39 40 41 42 43 44 45 46 47 48 49 50

000
ASUS45 KBOU 160507
RWRCO

WEATHER ROUNDUP FOR COLORADO
NATIONAL WEATHER SERVICE DENVER/BOULDER CO
1100 PM MDT MON SEP 15 2014

NOTE: "FAIR" INDICATES FEW OR NO CLOUDS BELOW 12000 FEET WITH NO
SIGNIFICANT WEATHER AND/OR OBSTRUCTIONS TO VISIBILITY.

COZ001>005-013-030-031-160600-
...NORTHWEST COLORADO...

CITY           SKY/WX    TMP DP  RH WIND       PRES   REMARKS
CRAIG          CLEAR     49  41  74 SE3       30.27R
HAYDEN         CLEAR     55  36  47 E8        30.29R
MEEKER         CLEAR     55  40  56 E8        30.30R
MOUNT WERNER   NOT AVBL
STEAMBOAT SPGS CLEAR     54  40  58 CALM      30.32R
WALDEN         CLEAR     41  32  70 SE9       30.38F
$$

COZ006>008-011-160600-
...WEST CENTRAL VALLEYS...

CITY           SKY/WX    TMP DP  RH WIND       PRES   REMARKS
GRAND JUNCTION CLEAR     65  43  44 E5        30.15R
MONTROSE       CLEAR     64  40  41 SE9       30.26R
EAGLE          CLEAR     55  41  58 SE3       30.34R
RIFLE          CLEAR     59  42  53 E5        30.24R
DELTA          CLEAR     66  42  40 E3        30.21R
NUCLA          CLEAR     64  37  36 E13       30.28R
$$

COZ017>023-064>068-160600-
...SOUTHWEST COLORADO...

CITY           SKY/WX    TMP DP  RH WIND       PRES   REMARKS
DURANGO        PTCLDY    61  39  44 N9        30.34R
CORTEZ         PTCLDY    60  42  51 N3        30.26R
PAGOSA SPRINGS MOCLDY    60  39  46 CALM      30.43R
TELLURIDE      NOT AVBL
WOLF CREEK PAS PTCLDY    45  34  65 SW16      30.69S
$$

COZ009-010-012-014-032>034-037-058>063-160600-
...CENTRAL COLORADO...

CITY           SKY/WX    TMP DP  RH WIND       PRES   REMARKS
ASPEN          CLEAR     51  37  58 SW9       30.40R
BUENA VISTA    PTCLDY    47  39  72 CALM      30.46R
COPPER MTN     CLEAR     50  28  43 S18       30.69S
BERTHOUD PASS  FAIR      41  37  87 W12       30.71S
COTTONWOOD PAS PTCLDY    54  37  54 CALM      30.57S
GUNNISON       PTCLDY    55  36  47 N5        30.42R
KREMMLING      CLEAR     46  39  76 CALM      30.38S
LEADVILLE      CLEAR     44  33  65 CALM      30.55R
MONARCH PASS   CLOUDY    46  34  61 S3        30.80R
SALIDA         MOCLDY    57  47  69 S5        30.51R
SUNLIGHT       CLEAR     54  32  43 CALM      30.62S
WILKERSON PASS NOT AVBL
$$

COZ069>075-160600-
...SAN LUIS VALLEY/SANGRE DE CRISTO MOUNTAINS...

CITY           SKY/WX    TMP DP  RH WIND       PRES   REMARKS
ALAMOSA        PTCLDY    59  44  57 SE12      30.41S
LA VETA PASS   NOT AVBL
SAGUACHE       NOT AVBL
$$

COZ035-036-038>040-160600-
...NORTHERN COLORADO FRONT RANGE...

CITY           SKY/WX    TMP DP  RH WIND       PRES   REMARKS
DENVER INTL AP CLEAR     59  50  72 SW12      30.24F
DMNS CITY PARK   N/A     54  53  95 SE3       30.24S
AURORA         CLEAR     58  50  75 S9        30.26F
FRONT RANGE AP CLEAR     61  52  72 S13       30.25F
ERIE MUNI ARPT CLEAR     53  49  84 CALM      30.23F
BOULDER MUN AP CLEAR     55  48  76 CALM      30.23F
CENTENNIAL     PTCLDY    58  50  75 S9        30.27F
BROOMFIELD     NOT AVBL
FORT COLLINS   CLEAR     55  48  76 N3        30.24S
LONGMONT       CLEAR     56  48  73 CALM      30.24F
$$

COZ041-046-047-076>085-087-088-160600-
...PIKES PEAK/PALMER DIVIDE AND SOUTHERN FOOTHILLS...

CITY           SKY/WX    TMP DP  RH WIND       PRES   REMARKS
COLO. SPRINGS  CLOUDY    53  51  93 SE9       30.38F FOG
A. F. ACADEMY  CLOUDY    53  51  91 S12       30.38S
ELLICOTT       NOT AVBL
FALCON         FOG       51  51  99 S13       30.40S VSB 3/4
FORT CARSON    CLOUDY    54  52  94 S8        30.36F
LIMON          PTCLDY    51  50  96 S10       30.32F
MONUMENT HILL  PTCLDY    48  46  93 S15       30.34F FOG
TRINIDAD       PTCLDY    51  49  92 N5        30.35S
$$

COZ042>045-048>051-090-091-160600-
...NORTHEAST COLORADO...

CITY           SKY/WX    TMP DP  RH WIND       PRES   REMARKS
GREELEY ARPT   CLEAR     54  45  71 NW6       30.22F
AKRON          CLEAR     54  50  86 S16       30.24F
BURLINGTON     CLOUDY    58  51  78 S9        30.29S
WRAY           CLEAR     53  48  83 S3        30.25F
STERLING       CLEAR     57  54  88 S8        30.21S
HOLYOKE        CLEAR     54  46  76 S8        30.24F
FORT MORGAN    CLEAR     54  50  87 SE6       30.22F
$$

COZ086-089-092>099-160600-
...SOUTHEAST COLORADO...

CITY           SKY/WX    TMP DP  RH WIND       PRES   REMARKS
PUEBLO         CLEAR     56  53  90 S3        30.32R
LA JUNTA       CLOUDY    60  52  74 SE9       30.31F
LAMAR          CLOUDY    61  53  75 S7        30.29S
SPRINGFIELD      N/A     56  54  93 CALM      30.32F
$$



USA.gov is the U.S. government's official web portal to all federal, state and local government web resources and services.